[[{"header":{"parameterUnit":"m.s-1","parameterCategory":1,"la1":30.2991,"la2":30.254,"lo1":-89.0895,"lo2":-89.0444,"dy":0.0017,"dx":0.0017,"nx":28,"ny":28,"refTime":"2024-02-04T09:00:00:Z","depth":0,"parameterNumber":2,"parameterNumberName":"U-component_of_WINDS"},"data":[0,0,0,0,0,0,0,0,0,0,0,0,0,0,0,0,0,0,0,0,0,0,0,0,0,0,0,0,0,0,0,0,0,0,0,0,0,0,0,0,0,0,0,0,0,0,0,0,0,0,0,0,0,0,0,0,0,0,2.5885,2.5885,0,2.59,2.59,2.59,2.5844,2.5842,2.5841,2.5839,2.5853,2.5855,2.5857,0,0,0,0,0,0,0,0,0,0,0,0,0,2.5809,2.5811,2.5885,2.5885,2.5885,2.59,2.59,2.59,2.5844,2.5842,2.584,2.5838,2.5853,2.5855,2.5857,0,0,0,0,0,0,0,0,0,0,0,0,0,2.5835,2.5811,2.5885,2.5859,2.5857,2.59,2.59,2.59,2.5845,2.5842,2.584,2.5837,2.5852,2.5855,2.5857,2.5925,0,0,2.5866,2.5867,0,0,0,0,0,0,0,0,2.5833,2.5837,2.5863,2.5861,2.5859,2.5867,2.5878,2.5908,2.5845,2.5849,2.5839,2.5836,2.586,2.5862,2.587,2.5926,2.5926,2.5866,2.5868,2.5869,2.587,0,0,0,0,0,0,0,2.5831,2.5836,2.589,2.5863,2.5861,2.5847,2.5848,2.5884,2.5868,2.5849,2.5845,2.5847,2.5858,2.5867,2.587,2.5926,2.5866,2.5869,2.5871,2.5872,2.6042,2.6045,0,0,0,0,0,0,2.5833,2.5835,2.589,2.5891,2.584,2.5851,2.5852,2.5867,2.5868,2.5865,2.5849,2.5845,2.5864,2.5867,2.587,2.5952,2.5869,2.5872,2.5874,2.6039,2.6043,2.6046,0,0,0,0,0,0,2.5832,2.5838,2.5889,2.5862,2.5868,2.5854,2.5872,2.5869,2.5878,2.5868,2.5865,2.5862,2.5862,2.5866,2.5913,2.5952,2.5873,2.5876,2.6036,2.604,2.6044,2.6114,0,0,0,0,0,0,2.583,2.5838,2.5863,2.5863,2.5869,2.5931,2.5875,2.5871,2.5883,2.5877,2.5879,2.5877,2.586,2.5909,2.5916,2.5954,2.5878,2.6032,2.6038,2.6043,2.6108,2.612,2.6131,0,0,0,0,0,2.5827,2.5881,2.5865,2.5872,2.59,2.5934,2.5937,2.5917,2.5886,2.5912,2.5907,2.5877,2.5946,2.5914,2.5921,2.5961,2.603,2.6036,2.6042,2.6104,2.6118,2.613,0,0,0,0,0,0,2.5885,2.5881,2.5862,2.5918,2.5927,2.5924,2.5956,2.5933,2.595,2.5944,2.5918,2.5919,2.5971,2.597,2.5934,2.6028,2.5983,2.5991,2.6027,2.604,2.6051,2.6051,2.5881,0,0,0,0,0,2.5904,2.5932,2.5927,2.5976,2.5982,2.5969,2.5982,2.5967,2.5974,2.5977,2.5975,2.5984,2.6008,2.6024,2.6045,2.6108,2.6109,2.6139,2.6151,2.616,2.6167,2.6203,2.6218,2.6066,2.6066,2.6066,0,0,2.5944,2.5946,2.5964,2.5988,2.5993,2.6023,2.5972,2.6004,2.6027,2.5982,2.6027,2.6026,2.6034,2.609,2.6114,2.6091,2.6209,2.6168,2.6175,2.6177,2.6211,2.6226,2.6239,2.607,2.607,2.6069,0,0,2.6033,2.6036,2.6079,2.6086,2.6095,2.6086,2.6097,2.6098,2.6097,2.6141,2.6109,2.6135,2.6176,2.6185,2.6194,2.629,2.6264,2.6298,2.6355,2.6391,2.6403,2.6414,2.645,2.6463,2.6305,2.6305,2.6305,0,2.6081,2.6125,2.6104,2.6141,2.6153,2.6116,2.616,2.6168,2.6183,2.6193,2.6167,2.622,2.6223,2.6282,2.6306,2.6314,2.6326,2.6297,2.6403,2.6413,2.6423,2.6457,2.6471,2.6309,2.6309,2.6308,2.6308,0,2.6186,2.6217,2.6251,2.6269,2.6285,2.6325,2.6311,2.633,2.6314,2.6308,2.6356,2.6358,2.6381,2.6393,2.6377,2.6451,2.6437,2.6407,2.6361,2.6442,2.6474,2.6487,2.6315,2.6314,2.6312,2.6311,0,0,2.6309,2.6317,2.633,2.634,2.6348,2.6372,2.6412,2.6435,2.6453,2.6465,2.6499,2.6537,2.6511,2.6522,2.6506,2.6537,2.6616,2.6504,2.6504,2.6527,2.6701,2.6724,2.6739,2.6599,2.6602,2.6604,2.6701,0,2.6398,2.6467,2.645,2.6518,2.6549,2.6515,2.655,2.656,2.6556,2.6581,2.6577,2.6605,2.6567,2.6574,2.6604,2.6601,2.6651,2.6593,2.6631,2.6633,2.6632,2.6756,2.6779,2.6871,2.6713,2.6715,2.6717,0,2.651,2.653,2.6601,2.6609,2.662,2.6652,2.6674,2.6698,2.6709,2.6705,2.6719,2.6698,2.6739,2.6692,2.6749,2.671,2.6724,2.6726,2.6729,2.6732,2.668,2.6764,2.69,2.6914,2.6736,2.6734,2.6733,0,2.6596,2.664,2.6689,2.6698,2.6707,2.673,2.6735,2.6744,2.676,2.6779,2.679,2.6813,2.6826,2.6845,2.6831,2.6798,2.6891,2.6842,2.6889,2.689,2.691,2.691,2.7052,2.6918,2.6918,2.6918,2.6917,0,2.6698,2.6744,2.6729,2.6759,2.681,2.6792,2.6843,2.6843,2.6852,2.6883,2.6855,2.6884,2.6864,2.6892,2.6882,2.6932,2.6937,2.6936,2.6933,2.6939,2.694,2.6949,2.6943,2.6921,2.692,2.692,2.6919,0,2.6802,2.6794,2.6846,2.6852,2.6854,2.6892,2.6896,2.6925,2.6921,2.696,2.6968,2.6961,2.6993,2.6982,2.7015,2.7009,2.7073,2.706,2.707,2.7067,2.7115,2.7112,2.727,2.729,2.7142,2.7143,2.7145,0,2.6868,2.6903,2.6914,2.6933,2.694,2.6971,2.6989,2.6972,2.6992,2.7009,2.7036,2.7066,2.7089,2.7142,2.714,2.7166,2.7156,2.7209,2.7159,2.7166,2.7159,2.7158,2.7162,2.7219,2.7221,2.7223,2.7224,0,2.6988,2.6983,2.7009,2.7035,2.7057,2.7076,2.7093,2.711,2.7095,2.7119,2.7152,2.717,2.7206,2.7237,2.7261,2.7266,2.7244,2.724,2.7252,2.726,2.7264,2.7265,2.7099,2.7236,2.7235,2.7234,2.7233,2.7233,2.7076,2.7107,2.712,2.7151,2.7163,2.718,2.7209,2.7209,2.7237,2.7265,2.7254,2.7293,2.7306,2.7336,2.7345,2.7376,2.7355,2.7373,2.7377,2.7383,2.739,2.7259,2.738,2.7379,2.7379,2.7379,2.7378,0,2.7196,2.7203,2.7232,2.7258,2.7283,2.7261,2.7279,2.7302,2.7337,2.7351,2.7375,2.7415,2.7445,2.7447,2.7475,2.75,2.749,2.7508,2.7507,2.7509,2.7406,2.7393,2.7515,2.7515,2.7515,2.7515,2.7515,2.7515,2.7261,2.7313,2.731,2.7368,2.7375,2.7414,2.7427,2.7443,2.7455,2.7501,2.7527,2.7528,2.7538,2.7567,2.7595,2.7594,2.7607,2.7629,2.7625,2.7529,2.7516,2.7503,2.7491,2.7632,2.7632,2.7726,2.7727,2.7728]},{"header":{"parameterUnit":"m.s-1","parameterCategory":1,"la1":30.2991,"la2":30.254,"lo1":-89.0895,"lo2":-89.0444,"dy":0.0017,"dx":0.0017,"nx":28,"ny":28,"refTime":"2024-02-04T09:00:00:Z","depth":0,"parameterNumber":3,"parameterNumberName":"V-component_of_WINDS"},"data":[0,0,0,0,0,0,0,0,0,0,0,0,0,0,0,0,0,0,0,0,0,0,0,0,0,0,0,0,0,0,0,0,0,0,0,0,0,0,0,0,0,0,0,0,0,0,0,0,0,0,0,0,0,0,0,0,0,0,0.9707,0.9707,0,0.9665,0.9665,0.9664,0.9637,0.9637,0.9637,0.9637,0.959,0.9589,0.9588,0,0,0,0,0,0,0,0,0,0,0,0,0,0.976,0.976,0.9708,0.9707,0.9706,0.9665,0.9665,0.9664,0.9637,0.9637,0.9637,0.9637,0.959,0.9589,0.9588,0,0,0,0,0,0,0,0,0,0,0,0,0,0.973,0.9759,0.9708,0.9688,0.9686,0.9666,0.9665,0.9664,0.9637,0.9637,0.9637,0.9637,0.9591,0.9589,0.9588,0.9582,0,0,0.9583,0.9582,0,0,0,0,0,0,0,0,0.9732,0.9728,0.9692,0.9689,0.9687,0.9656,0.9666,0.9636,0.9637,0.9656,0.9637,0.9636,0.9612,0.9609,0.9601,0.958,0.9578,0.9582,0.9581,0.9581,0.958,0,0,0,0,0,0,0,0.9734,0.9729,0.9691,0.9691,0.9688,0.968,0.9675,0.966,0.9636,0.9654,0.9652,0.9648,0.9611,0.9603,0.96,0.9577,0.9582,0.9581,0.958,0.9579,0.9547,0.9547,0,0,0,0,0,0,0.9739,0.9731,0.9692,0.9689,0.9709,0.9679,0.9674,0.9666,0.9636,0.9631,0.9648,0.9646,0.9606,0.9602,0.9598,0.9588,0.9581,0.9579,0.9578,0.9547,0.9547,0.9547,0,0,0,0,0,0,0.9741,0.9736,0.9694,0.971,0.9704,0.9679,0.967,0.9666,0.9658,0.9631,0.9626,0.9645,0.9605,0.96,0.9586,0.9586,0.9578,0.9577,0.9547,0.9547,0.9547,0.957,0,0,0,0,0,0,0.9742,0.9737,0.9736,0.971,0.9703,0.9684,0.967,0.9665,0.9655,0.9653,0.9627,0.9622,0.9605,0.9589,0.9584,0.9584,0.9576,0.9546,0.9547,0.9547,0.9569,0.9571,0.9572,0,0,0,0,0,0.9744,0.9743,0.9736,0.9731,0.9701,0.9684,0.968,0.9661,0.9656,0.9653,0.9636,0.9623,0.9587,0.9587,0.9582,0.9581,0.9546,0.9547,0.9547,0.9568,0.957,0.9572,0,0,0,0,0,0,0.9769,0.974,0.9731,0.9722,0.9706,0.968,0.9676,0.9664,0.9649,0.9647,0.9623,0.9618,0.9605,0.9592,0.9593,0.9573,0.9565,0.9564,0.9583,0.9585,0.9586,0.959,0.9574,0,0,0,0,0,0.9773,0.9763,0.9738,0.9732,0.9724,0.9702,0.9694,0.9681,0.9662,0.9655,0.9637,0.9618,0.9603,0.9593,0.9577,0.9567,0.9559,0.9563,0.9565,0.9566,0.9566,0.9557,0.9558,0.9548,0.9548,0.9548,0,0,0.9782,0.9765,0.976,0.9736,0.9722,0.9711,0.9696,0.9685,0.9675,0.9653,0.9638,0.9624,0.9602,0.9589,0.9582,0.9577,0.9567,0.9567,0.9568,0.9567,0.9558,0.9559,0.956,0.9548,0.9548,0.9548,0,0,0.9792,0.9779,0.9772,0.9758,0.9737,0.9722,0.9721,0.9696,0.9686,0.9671,0.9653,0.9641,0.9615,0.9599,0.9588,0.9591,0.9578,0.9586,0.9595,0.9587,0.9588,0.9589,0.9588,0.9589,0.9586,0.9586,0.9586,0,0.9805,0.9789,0.977,0.9759,0.9749,0.9729,0.9721,0.9708,0.9682,0.9675,0.967,0.9636,0.962,0.9602,0.9603,0.9595,0.959,0.9589,0.959,0.959,0.959,0.959,0.959,0.9587,0.9587,0.9587,0.9587,0,0.9805,0.9794,0.9791,0.9768,0.9757,0.9748,0.9726,0.9717,0.9704,0.9689,0.9673,0.9652,0.9631,0.9626,0.9614,0.9606,0.9604,0.9595,0.9585,0.9593,0.9592,0.9591,0.9589,0.9588,0.9588,0.9588,0,0,0.983,0.9796,0.9795,0.9784,0.9759,0.9749,0.9738,0.9719,0.9711,0.9693,0.9682,0.966,0.9651,0.9638,0.9623,0.9617,0.9618,0.9608,0.9607,0.961,0.9607,0.9614,0.9614,0.9609,0.9609,0.9609,0.9608,0,0.9836,0.9817,0.9799,0.9785,0.9774,0.9753,0.9744,0.9726,0.9711,0.9698,0.968,0.9665,0.9655,0.9647,0.9639,0.962,0.9617,0.962,0.9597,0.9597,0.9603,0.9613,0.9621,0.9621,0.9608,0.9608,0.9608,0,0.984,0.9825,0.981,0.9785,0.978,0.9772,0.9751,0.9739,0.9718,0.9708,0.9693,0.9677,0.9662,0.9655,0.9633,0.9635,0.9625,0.9614,0.9613,0.961,0.9603,0.961,0.9621,0.9621,0.9607,0.9607,0.9607,0,0.9858,0.9834,0.9822,0.9813,0.9784,0.9778,0.9765,0.9744,0.9733,0.9715,0.9707,0.9687,0.9676,0.966,0.9638,0.9635,0.9618,0.9609,0.9607,0.9608,0.9605,0.9605,0.9614,0.9599,0.9599,0.9599,0.9599,0,0.9866,0.9858,0.9829,0.9822,0.9812,0.979,0.978,0.9765,0.9746,0.9734,0.9715,0.9704,0.9677,0.9661,0.9644,0.9628,0.9623,0.9612,0.9608,0.9614,0.9615,0.9607,0.9606,0.9599,0.9599,0.9599,0.9599,0,0.9884,0.9865,0.9851,0.9825,0.9818,0.9811,0.9788,0.9779,0.9762,0.9747,0.9742,0.9716,0.9697,0.9674,0.9647,0.9636,0.962,0.9614,0.9628,0.9625,0.9625,0.9625,0.9628,0.9626,0.9613,0.9613,0.9613,0,0.9891,0.9884,0.9857,0.9848,0.9837,0.9823,0.9812,0.979,0.9778,0.9753,0.9747,0.9727,0.9709,0.9679,0.9657,0.9635,0.9628,0.963,0.9624,0.963,0.9627,0.9627,0.9626,0.9632,0.9632,0.9632,0.9632,0,0.9903,0.9894,0.9879,0.9861,0.9849,0.9833,0.9816,0.981,0.9784,0.9772,0.9753,0.974,0.9712,0.9692,0.9668,0.9652,0.9637,0.9634,0.9633,0.9639,0.9647,0.9641,0.9632,0.9634,0.9634,0.9634,0.9634,0.9634,0.9915,0.9907,0.9887,0.9872,0.9857,0.9842,0.9832,0.9814,0.9799,0.9776,0.9763,0.9744,0.9721,0.9688,0.9673,0.9656,0.9651,0.9648,0.9648,0.9647,0.9649,0.965,0.9651,0.9651,0.9651,0.9651,0.9651,0,0.9925,0.9911,0.9897,0.9875,0.9862,0.9851,0.9831,0.9821,0.9805,0.9785,0.9769,0.9746,0.9726,0.9701,0.9679,0.967,0.9662,0.9665,0.9665,0.9661,0.9655,0.9659,0.9671,0.9671,0.9671,0.9671,0.9671,0.9671,0.9929,0.9916,0.9904,0.9883,0.9869,0.9851,0.9841,0.9826,0.981,0.9787,0.977,0.9755,0.9733,0.9708,0.9688,0.9681,0.9673,0.9678,0.9669,0.9663,0.9662,0.966,0.9663,0.9676,0.9676,0.9676,0.9676,0.9676]}]]